Wind_Speed
23 22 22 23 22 24 26 26 27 26 26 24 22 21 21 21 21 21 20 20 20 19 19 19 18 18 18 19 19 20 20 20 20 20 20 20 21 21 21 21 21 21 21 21
24 23 23 23 23 23 24 24 25 25 25 24 23 23 22 21 20 20 20 20 19 19 20 19 19 20 20 20 20 20 20 20 20 20 20 20 20 20 20 20 20 21 21 21
23 23 24 24 24 23 23 23 24 25 24 24 24 24 24 23 21 20 20 20 20 19 19 19 20 21 22 21 20 20 21 21 21 20 20 20 19 19 18 18 19 20 20 21
22 23 25 24 24 23 23 23 24 24 23 23 23 23 22 21 21 21 21 21 20 19 18 19 20 21 22 22 22 21 21 21 21 21 21 21 20 19 18 18 18 19 20 21
22 22 22 23 24 23 23 23 22 22 22 22 22 22 22 22 21 21 22 20 20 20 20 20 20 20 21 21 22 22 22 21 21 21 20 20 20 19 19 19 19 20 20 20
22 22 21 20 21 22 23 23 22 22 22 22 22 22 23 22 21 21 21 22 21 20 20 20 19 20 20 20 20 21 22 21 21 20 20 20 20 20 20 20 20 20 20 20
22 23 22 20 20 21 22 23 22 22 23 23 23 22 22 22 23 22 21 21 21 21 21 20 20 20 20 20 20 20 21 21 21 20 21 21 21 20 20 21 21 20 20 20
22 23 22 23 23 22 22 21 22 22 22 23 23 23 23 23 23 22 21 21 21 22 22 21 20 20 20 20 20 20 19 20 21 21 20 20 21 20 20 21 21 20 20 20
21 22 22 22 23 23 22 22 21 22 22 23 23 23 23 23 23 22 21 21 21 21 22 21 20 21 20 20 20 20 19 19 20 20 20 20 20 20 20 20 20 21 21 21
21 20 21 21 22 22 23 23 23 23 23 23 23 23 23 23 23 23 21 21 21 21 21 21 20 20 21 20 20 19 19 19 19 19 19 19 19 19 19 20 20 21 21 21
22 22 22 22 22 22 22 23 22 23 24 23 23 23 23 23 22 22 22 21 21 20 20 21 20 20 21 21 20 19 18 18 19 19 19 18 18 18 19 20 20 21 22 22
23 23 24 23 23 23 23 23 23 23 23 23 23 24 24 24 24 23 22 21 21 21 21 20 21 21 20 21 20 19 19 19 19 19 19 19 19 20 20 21 21 21 21 22
23 23 24 24 24 24 24 24 24 24 23 23 23 23 24 24 24 24 23 22 21 22 22 21 21 21 21 21 21 21 21 20 20 21 21 21 21 22 22 22 21 21 22 21
21 22 23 23 24 23 23 24 24 24 24 23 23 23 22 23 23 23 23 23 23 22 22 22 22 21 21 21 21 21 20 21 22 22 22 22 22 22 22 22 21 21 21 21
20 20 21 21 21 22 22 23 24 24 24 24 24 23 23 23 23 22 22 23 23 23 22 22 22 22 23 22 21 21 21 21 21 21 21 21 21 21 21 22 22 22 22 22
19 20 20 20 20 21 22 22 22 23 24 24 24 25 25 24 24 23 22 22 22 22 23 23 22 23 23 23 23 22 21 21 22 21 21 21 21 21 21 21 21 21 20 21
19 20 20 19 19 19 20 22 22 22 23 23 23 24 24 24 24 24 23 23 22 22 22 22 22 22 23 23 23 22 21 21 21 21 21 20 21 20 20 20 20 19 20 20
18 19 20 20 20 19 19 20 21 21 22 22 23 23 23 23 23 23 23 24 23 23 23 22 22 22 22 22 22 21 21 21 21 21 21 20 20 20 19 19 19 20 20 20
17 18 19 19 19 19 19 19 19 20 21 22 23 23 23 23 23 24 24 24 24 24 24 24 23 23 23 23 23 23 23 22 22 21 21 21 21 20 20 20 20 19 19 20
17 18 18 18 18 18 18 18 19 20 21 21 22 23 24 24 24 25 26 26 26 25 25 25 25 25 25 25 24 23 23 22 22 22 21 21 21 20 20 20 20 19 19 19
17 17 18 18 18 17 17 17 18 19 20 20 21 22 22 22 24 25 25 25 25 25 25 25 25 25 25 25 24 23 23 23 23 22 22 21 20 20 20 20 20 20 20 20
15 16 17 17 17 17 17 17 17 18 18 19 20 20 20 21 22 23 24 24 25 25 24 24 24 24 24 24 24 24 23 23 23 23 22 22 21 20 20 21 21 21 21 21
14 15 15 16 16 16 16 16 16 16 17 18 19 19 19 20 20 21 21 22 23 23 23 23 23 23 23 23 23 23 23 23 22 23 23 23 23 22 22 22 23 23 23 23
14 14 14 15 15 15 15 15 15 16 16 16 17 18 19 20 20 20 20 20 21 21 22 22 22 22 22 23 23 22 22 23 23 23 23 23 24 24 24 24 24 25 25 25
14 14 14 14 15 14 15 15 15 15 15 15 16 17 17 18 18 18 19 19 20 21 21 21 21 22 22 22 22 22 22 22 23 23 24 25 25 24 25 25 25 25 26 26
14 14 14 14 13 14 14 14 14 14 14 15 15 15 15 15 16 17 17 18 19 19 20 20 21 21 21 22 22 22 22 23 23 24 24 24 24 25 25 25 26 26 26 27
14 14 13 12 12 12 13 13 13 13 13 13 14 14 14 14 15 15 15 16 16 17 18 19 19 20 20 21 21 22 22 22 23 23 24 24 25 25 25 26 26 26 26 26
Wind_Direction
253 254 254 253 252 252 256 257 258 260 262 264 265 266 268 270 264 263 266 267 271 273 274 268 268 268 269 273 277 278 276 276 276 276 277 278 279 279 278 277 274 272 273 272
252 252 253 251 251 256 257 258 258 260 262 262 262 263 264 264 266 266 267 269 270 273 272 270 270 269 270 272 275 277 275 275 276 277 277 278 278 278 278 276 275 273 272 272
250 250 251 252 252 252 254 255 258 258 258 260 262 260 262 264 265 265 271 272 271 270 269 270 269 268 268 269 272 275 275 275 276 278 277 280 281 278 278 278 277 274 274 273
249 250 251 253 254 253 255 256 258 260 259 259 259 259 261 265 266 266 267 270 272 271 269 273 271 271 271 272 273 275 274 274 275 277 277 278 277 275 274 276 275 275 275 274
252 252 254 252 252 255 257 258 259 260 255 256 258 259 261 262 265 266 263 266 271 271 271 276 276 275 274 275 275 275 274 273 272 274 276 276 275 272 273 274 276 276 276 275
254 255 256 253 252 256 259 259 260 260 257 255 257 259 261 261 263 266 266 267 269 270 272 274 275 275 276 276 277 276 272 269 271 272 274 274 275 275 273 275 278 277 278 278
252 254 257 255 256 258 258 258 259 261 259 256 256 259 263 263 261 263 265 267 266 267 269 272 274 276 275 275 277 278 273 267 268 271 273 273 273 274 273 274 277 278 279 279
254 254 256 256 256 260 263 263 261 260 260 258 257 260 261 262 262 265 267 267 265 264 267 270 273 274 275 278 278 278 274 270 269 270 271 270 271 271 272 274 275 277 278 280
255 256 258 258 257 259 263 265 262 258 258 257 258 262 263 263 263 267 266 267 266 265 267 269 270 273 274 276 276 276 274 272 270 269 268 268 269 270 271 273 276 279 281 282
254 256 258 259 258 260 262 264 264 262 260 260 261 262 264 263 262 264 265 266 267 265 266 267 269 269 272 273 273 273 271 271 272 268 267 269 270 271 273 275 278 281 282 281
256 256 257 260 261 262 263 263 264 264 262 262 262 262 261 260 263 265 266 267 266 265 264 264 265 266 271 273 273 272 271 271 270 269 270 271 273 275 277 278 280 282 284 283
257 256 258 262 263 263 262 262 261 262 262 261 261 263 264 264 267 269 270 268 267 266 266 266 266 266 270 273 274 273 272 270 270 271 272 273 274 274 275 278 280 281 284 285
260 261 261 264 266 265 263 260 259 258 258 259 262 263 262 262 263 264 265 264 262 264 264 267 269 269 270 273 275 274 272 271 271 271 274 274 275 276 276 277 277 279 282 284
262 263 262 265 266 264 262 260 261 259 258 258 258 258 260 261 261 262 261 261 262 262 262 264 267 268 270 273 272 270 270 271 271 271 273 275 276 277 278 278 278 280 282 282
264 264 265 267 265 264 263 262 262 260 259 257 256 254 257 260 261 262 260 261 262 262 262 262 264 266 269 272 272 270 269 270 270 271 272 273 276 278 279 280 280 279 280 281
264 264 266 266 265 265 265 265 265 264 260 257 256 255 256 258 260 261 261 262 263 263 263 263 265 266 267 270 271 271 270 271 272 272 272 274 276 278 280 281 280 280 280 281
264 264 265 269 268 267 267 267 266 265 263 260 258 258 258 259 261 261 260 260 263 265 266 266 265 266 268 270 270 270 270 271 271 272 273 276 277 278 280 281 280 279 281 283
265 267 269 271 273 272 269 267 265 263 262 261 259 257 258 260 262 262 262 262 264 265 265 266 266 267 269 268 268 269 269 270 270 271 272 275 276 277 278 279 280 280 282 284
268 268 270 272 272 272 269 266 264 263 262 261 260 259 259 260 262 263 263 264 265 265 264 266 267 268 268 269 268 267 267 268 268 269 271 273 274 275 276 278 280 281 282 283
268 268 270 271 272 272 269 266 266 264 261 261 262 262 261 262 262 263 265 265 265 264 263 264 265 265 265 266 266 265 265 265 266 267 270 272 274 276 277 278 280 280 280 281
271 269 269 271 270 270 268 266 267 265 265 264 264 265 266 266 264 264 264 265 265 265 263 263 264 264 264 265 265 264 263 264 265 267 270 272 274 276 277 278 279 280 281 283
275 273 270 269 269 270 268 267 267 265 266 266 267 269 270 268 268 267 266 265 264 263 264 264 264 264 264 265 265 264 263 265 266 266 268 270 272 275 276 277 277 279 281 283
275 273 270 271 274 273 271 271 270 268 269 270 270 270 271 270 270 270 269 267 264 263 264 263 261 262 263 264 264 263 262 264 265 266 268 269 270 272 274 276 277 278 280 281
276 274 274 274 275 273 271 270 271 272 273 276 275 274 273 271 271 272 270 267 266 265 265 261 260 261 263 263 263 262 262 262 263 266 269 270 272 273 275 275 277 278 279 281
277 276 277 276 275 275 274 272 272 272 272 276 280 282 279 276 275 274 270 268 267 267 265 262 260 260 261 261 261 262 264 264 266 268 270 271 273 275 276 277 278 279 281 282
279 275 276 278 277 276 276 275 273 273 274 278 282 285 285 283 281 278 274 273 273 271 266 263 262 262 263 264 264 264 264 266 268 270 271 273 274 275 276 277 278 279 281 282
282 278 277 277 276 276 277 277 277 276 278 281 284 287 290 289 284 280 279 280 279 275 268 266 266 267 267 266 266 266 266 269 270 270 271 273 275 276 276 278 278 278 279 280
Height
5780 5781 5781 5782 5783 5784 5784 5784 5785 5787 5788 5789 5789 5789 5789 5789 5789 5789 5790 5790 5790 5789 5790 5790 5790 5790 5790 5790 5790 5789 5788 5788 5787 5786 5785 5784 5783 5782 5781 5780 5779 5779 5779 5779
5774 5775 5775 5776 5777 5777 5778 5778 5779 5780 5782 5783 5783 5783 5783 5783 5783 5783 5783 5784 5784 5784 5784 5784 5784 5784 5784 5784 5783 5782 5782 5781 5781 5780 5779 5778 5777 5776 5775 5774 5773 5773 5772 5772
5767 5768 5768 5769 5770 5771 5772 5772 5773 5774 5776 5776 5777 5777 5777 5778 5777 5778 5779 5779 5779 5778 5778 5777 5777 5778 5778 5778 5777 5776 5776 5775 5774 5773 5773 5772 5771 5770 5769 5768 5767 5767 5766 5765
5760 5762 5762 5765 5764 5764 5765 5765 5766 5767 5769 5770 5770 5771 5771 5771 5772 5772 5772 5773 5773 5772 5771 5771 5771 5771 5771 5771 5770 5769 5769 5768 5768 5767 5766 5766 5764 5764 5763 5762 5761 5760 5760 5759
5753 5753 5755 5757 5757 5757 5758 5759 5760 5761 5762 5763 5764 5764 5765 5765 5765 5766 5766 5766 5767 5766 5766 5765 5764 5764 5764 5764 5763 5763 5762 5762 5761 5761 5760 5759 5758 5757 5757 5756 5755 5754 5753 5753
5746 5747 5748 5751 5751 5750 5752 5752 5754 5754 5755 5756 5757 5759 5759 5759 5759 5760 5760 5760 5760 5760 5760 5759 5759 5759 5758 5758 5757 5756 5756 5755 5755 5755 5754 5753 5752 5751 5750 5749 5749 5748 5747 5746
5740 5740 5741 5743 5744 5745 5747 5747 5747 5747 5748 5750 5751 5752 5753 5753 5753 5753 5754 5754 5754 5754 5754 5754 5753 5753 5752 5751 5751 5750 5749 5749 5749 5748 5747 5747 5746 5745 5744 5743 5743 5742 5741 5740
5733 5734 5737 5737 5738 5739 5740 5740 5741 5741 5742 5743 5744 5745 5745 5746 5747 5747 5747 5748 5748 5748 5747 5748 5747 5747 5746 5745 5745 5744 5744 5743 5742 5742 5741 5740 5740 5739 5738 5738 5737 5736 5735 5734
5727 5730 5730 5730 5731 5732 5733 5734 5734 5735 5736 5737 5737 5738 5739 5739 5739 5740 5741 5742 5742 5741 5741 5741 5741 5741 5741 5740 5739 5738 5738 5737 5736 5735 5734 5734 5733 5733 5733 5732 5731 5730 5729 5728
5720 5721 5722 5723 5724 5725 5726 5727 5728 5728 5729 5730 5730 5731 5732 5732 5733 5734 5735 5735 5735 5735 5735 5735 5735 5735 5734 5734 5733 5732 5732 5731 5730 5729 5729 5728 5727 5727 5727 5726 5725 5724 5723 5722
5713 5714 5716 5717 5718 5719 5719 5720 5721 5721 5722 5722 5723 5724 5725 5725 5726 5727 5728 5728 5728 5728 5728 5728 5729 5728 5728 5728 5727 5726 5726 5725 5724 5724 5723 5722 5722 5721 5721 5720 5719 5718 5717 5715
5707 5708 5709 5710 5711 5712 5712 5713 5714 5714 5715 5715 5716 5717 5717 5718 5719 5720 5720 5721 5721 5722 5722 5722 5722 5722 5722 5721 5721 5720 5720 5719 5719 5718 5718 5717 5716 5716 5715 5714 5712 5711 5710 5708
5700 5701 5701 5702 5703 5704 5705 5705 5706 5707 5708 5709 5709 5710 5710 5711 5712 5713 5713 5714 5714 5715 5715 5715 5715 5715 5715 5715 5715 5714 5714 5713 5713 5712 5712 5711 5710 5709 5708 5707 5706 5705 5703 5702
5694 5694 5695 5695 5695 5696 5696 5697 5698 5699 5700 5701 5702 5703 5703 5704 5705 5706 5706 5707 5708 5708 5708 5708 5709 5709 5709 5708 5708 5707 5707 5707 5706 5706 5705 5704 5703 5702 5701 5700 5699 5698 5697 5695
5686 5687 5688 5688 5688 5688 5689 5690 5691 5691 5692 5694 5695 5695 5696 5697 5698 5698 5699 5700 5700 5700 5701 5701 5701 5702 5702 5701 5701 5701 5700 5700 5699 5699 5698 5698 5697 5696 5695 5694 5692 5691 5690 5689
5680 5680 5680 5681 5681 5681 5682 5682 5683 5684 5685 5686 5687 5688 5689 5690 5690 5691 5692 5692 5693 5693 5694 5694 5694 5695 5695 5694 5694 5694 5693 5693 5693 5692 5692 5691 5690 5689 5688 5687 5686 5685 5684 5682
5674 5674 5674 5674 5674 5675 5675 5675 5676 5677 5677 5678 5679 5680 5681 5682 5683 5684 5685 5685 5686 5686 5686 5687 5687 5687 5687 5687 5687 5687 5687 5686 5686 5685 5685 5684 5683 5682 5681 5680 5679 5678 5677 5676
5667 5667 5667 5668 5667 5667 5668 5668 5668 5669 5670 5670 5671 5673 5674 5674 5676 5676 5677 5678 5678 5679 5679 5679 5679 5680 5680 5680 5680 5679 5679 5679 5679 5678 5678 5677 5677 5676 5675 5674 5673 5672 5671 5669
5660 5661 5661 5661 5661 5661 5661 5661 5661 5662 5662 5663 5664 5665 5666 5667 5668 5669 5669 5670 5670 5671 5671 5671 5672 5672 5672 5672 5672 5672 5672 5672 5672 5671 5671 5670 5670 5669 5668 5667 5666 5665 5664 5663
5654 5654 5654 5655 5655 5655 5654 5654 5655 5655 5656 5656 5657 5657 5658 5659 5659 5660 5661 5662 5662 5663 5663 5663 5663 5664 5664 5664 5664 5664 5664 5664 5664 5664 5664 5663 5662 5662 5661 5660 5660 5658 5657 5656
5649 5649 5649 5649 5649 5649 5648 5648 5648 5649 5649 5649 5650 5650 5651 5651 5651 5652 5652 5653 5654 5654 5654 5654 5654 5655 5655 5655 5656 5656 5656 5656 5656 5656 5656 5656 5655 5655 5654 5653 5652 5651 5650 5649
5643 5643 5643 5642 5642 5642 5642 5642 5642 5643 5643 5643 5643 5644 5644 5643 5643 5643 5643 5644 5645 5645 5645 5645 5645 5646 5646 5647 5647 5647 5648 5648 5649 5649 5649 5648 5648 5647 5646 5646 5645 5644 5643 5642
5638 5638 5637 5637 5637 5637 5637 5637 5637 5637 5637 5637 5637 5637 5636 5636 5636 5635 5636 5636 5636 5636 5636 5637 5637 5637 5637 5638 5638 5639 5639 5640 5640 5640 5640 5640 5640 5639 5639 5638 5637 5636 5634 5633
5633 5633 5632 5632 5632 5632 5632 5632 5632 5632 5631 5631 5630 5630 5630 5629 5628 5628 5628 5628 5627 5628 5628 5628 5629 5629 5629 5630 5630 5631 5631 5632 5632 5632 5632 5632 5631 5631 5630 5629 5628 5627 5626 5625
5628 5628 5627 5627 5627 5627 5627 5627 5627 5626 5626 5626 5625 5624 5623 5622 5622 5621 5621 5620 5620 5620 5620 5621 5621 5621 5622 5622 5623 5623 5623 5624 5624 5624 5623 5623 5622 5622 5622 5621 5620 5619 5617 5616
5623 5622 5622 5622 5622 5622 5622 5622 5622 5621 5621 5620 5620 5619 5618 5616 5615 5615 5614 5613 5613 5612 5612 5613 5613 5614 5614 5615 5615 5615 5616 5616 5616 5615 5615 5614 5614 5613 5613 5612 5611 5609 5608 5607
5618 5618 5617 5617 5617 5617 5617 5617 5617 5617 5616 5616 5615 5614 5612 5611 5610 5609 5608 5607 5606 5606 5605 5606 5606 5607 5607 5607 5607 5608 5608 5608 5608 5607 5606 5606 5605 5604 5603 5603 5602 5600 5599 5597